Dumas, TX

3:38 PM CST on February 24, 2017 (GMT -0600)
Moore County

Weather History for KDUX - March, 2013

Change the Weather History Date:

Friday, March 22, 2013

  Actual Average (KDHT) Record (KDHT)
Temperature  
Mean Temperature 40 °F -  
Max Temperature 55 °F 60 °F 85 °F (2016)
Min Temperature 26 °F 31 °F 10 °F (1955)
Degree Days  
Heating Degree Days 24    
Moisture  
Dew Point 29 °F    
Average Humidity 67    
Maximum Humidity 95    
Minimum Humidity 36    
Precipitation  
Precipitation 0.00 in - - ()
Sea Level Pressure  
Sea Level Pressure 29.81 in    
Wind  
Wind Speed 12 mph (ENE)    
Max Wind Speed 23 mph    
Max Gust Speed 29 mph    
Visibility 9 miles    
Events      
Averages and records for this station are not official NWS values.
T = Trace of Precipitation, MM = Missing Value Source: NWS Daily Summary

Daily Weather History Graph

Daily Weather History Graph

Search for Another Location

Airport or City:

Trip Planner

Search our weather history database for the weather conditions in past years. The results will help you decide how hot, cold, wet, or windy it might be!

Date:

Astronomy

Mar. 22, 2013 Rise Set
Actual Time 7:48 AM CDT 8:01 PM CDT
Civil Twilight 7:22 AM CDT 8:27 PM CDT
Nautical Twilight 6:52 AM CDT 8:57 PM CDT
Astronomical Twilight 6:22 AM CDT 9:27 PM CDT
Moon 3:38 PM CDT (3/22) 4:41 AM CDT (3/22)
Length of Visible Light 13h 04m
Length of Day
12h 13m
Waxing Gibbous, 77% of the Moon is Illuminated
Mar 22
Waxing Gibbous
Mar 27
Full
Apr 2
Last Quarter
Apr 10
New
Apr 18
First Quarter

Hourly Weather History & Observations

Time (CDT) Temp. Windchill Dew Point Humidity Pressure Visibility Wind Dir Wind Speed Gust Speed Precip Events Conditions
12:15 AM 39.4 °F 31.4 °F 32.2 °F 75% 29.72 in 10.0 mi North 13.8 mph - N/A   Clear
12:35 AM 38.5 °F 31.1 °F 32.2 °F 78% 29.73 in 10.0 mi North 11.5 mph - N/A   Clear
12:55 AM 37.6 °F 28.8 °F 32.4 °F 81% 29.75 in 10.0 mi North 15.0 mph - N/A   Clear
1:15 AM 37.4 °F 28.9 °F 32.5 °F 83% 29.76 in 10.0 mi NNE 13.8 mph 19.6 mph N/A   Scattered Clouds
1:35 AM 36.9 °F 25.6 °F 32.7 °F 85% 29.78 in 10.0 mi NNE 23.0 mph 27.6 mph N/A   Mostly Cloudy
1:55 AM 37.0 °F 27.0 °F 32.5 °F 84% 29.78 in 10.0 mi NNE 18.4 mph 28.8 mph N/A   Overcast
2:15 AM 36.7 °F 26.0 °F 32.2 °F 84% 29.79 in 10.0 mi NNE 20.7 mph 26.5 mph N/A   Overcast
2:35 AM 36.0 °F 25.0 °F 31.8 °F 85% 29.80 in 10.0 mi NNE 20.7 mph 26.5 mph N/A   Overcast
2:55 AM 35.2 °F 25.4 °F 31.1 °F 85% 29.79 in 10.0 mi NNE 16.1 mph 23.0 mph N/A   Overcast
3:15 AM 34.7 °F 25.1 °F 31.1 °F 87% 29.81 in 10.0 mi NNE 15.0 mph 24.2 mph N/A   Mostly Cloudy
3:35 AM 33.4 °F 25.4 °F 30.6 °F 89% 29.81 in 10.0 mi NNE 10.4 mph - N/A   Scattered Clouds
3:55 AM 32.5 °F 22.7 °F 29.3 °F 88% 29.80 in 10.0 mi NNE 13.8 mph 18.4 mph N/A   Clear
4:15 AM 32.0 °F 23.6 °F 29.1 °F 89% 29.81 in 10.0 mi NNE 10.4 mph - N/A   Scattered Clouds
4:35 AM 32.9 °F 24.1 °F 29.3 °F 87% 29.82 in 10.0 mi NNE 11.5 mph - N/A   Overcast
4:55 AM 32.4 °F 23.0 °F 29.8 °F 90% 29.80 in 7.0 mi NNE 12.7 mph 19.6 mph N/A   Overcast
5:15 AM 32.0 °F 23.6 °F 29.7 °F 91% 29.81 in 7.0 mi NNE 10.4 mph - N/A   Mostly Cloudy
5:35 AM 32.0 °F 24.8 °F 29.3 °F 90% 29.82 in 7.0 mi North 8.1 mph - N/A   Overcast
5:55 AM 31.1 °F 23.1 °F 28.2 °F 89% 29.82 in 10.0 mi NNE 9.2 mph - N/A   Overcast
6:15 AM 30.7 °F 22.6 °F 28.0 °F 90% 29.82 in 7.0 mi North 9.2 mph - N/A   Overcast
6:35 AM 29.3 °F 20.8 °F 27.3 °F 92% 29.82 in 7.0 mi North 9.2 mph - N/A   Overcast
6:55 AM 28.9 °F 20.4 °F 27.0 °F 92% 29.83 in 7.0 mi North 9.2 mph - N/A   Overcast
7:15 AM 28.0 °F 20.0 °F 26.4 °F 94% 29.83 in 7.0 mi North 8.1 mph - N/A   Scattered Clouds
7:35 AM 27.3 °F 19.9 °F 25.7 °F 94% 29.84 in 5.0 mi North 6.9 mph - N/A   Clear
7:55 AM 26.6 °F 19.1 °F 25.3 °F 95% 29.84 in 4.0 mi North 6.9 mph - N/A   Clear
8:15 AM 26.6 °F 18.2 °F 25.3 °F 95% 29.85 in 4.0 mi North 8.1 mph - N/A   Clear
8:35 AM 27.7 °F 18.8 °F 26.2 °F 94% 29.86 in 5.0 mi North 9.2 mph - N/A   Clear
8:55 AM 29.1 °F 20.6 °F 26.8 °F 91% 29.87 in 5.0 mi NNW 9.2 mph - N/A   Clear
9:15 AM 30.7 °F 23.3 °F 27.5 °F 88% 29.89 in 7.0 mi NNW 8.1 mph - N/A   Clear
9:35 AM 32.2 °F 25.8 °F 28.4 °F 86% 29.90 in 7.0 mi NNW 6.9 mph - N/A   Clear
9:55 AM 34.5 °F 27.3 °F 28.8 °F 79% 29.90 in 10.0 mi North 9.2 mph - N/A   Clear
10:15 AM 36.1 °F 29.3 °F 29.3 °F 76% 29.90 in 10.0 mi North 9.2 mph - N/A   Clear
10:35 AM 38.5 °F 32.7 °F 29.5 °F 70% 29.91 in 10.0 mi North 8.1 mph - N/A   Clear
10:55 AM 40.1 °F 35.3 °F 29.5 °F 66% 29.91 in 10.0 mi North 6.9 mph - N/A   Clear
11:15 AM 41.7 °F 36.1 °F 29.7 °F 62% 29.91 in 10.0 mi NE 9.2 mph - N/A   Clear
11:35 AM 42.8 °F 38.0 °F 29.5 °F 59% 29.91 in 10.0 mi North 8.1 mph - N/A   Clear
11:55 AM 43.5 °F 39.4 °F 29.7 °F 58% 29.90 in 10.0 mi North 6.9 mph - N/A   Clear
12:35 PM 45.7 °F 42.7 °F 29.3 °F 53% 29.90 in 10.0 mi North 5.8 mph - N/A   Clear
1:15 PM 49.3 °F - 29.8 °F 47% 29.88 in 10.0 mi East 11.5 mph - N/A   Clear
1:35 PM 48.6 °F - 28.8 °F 46% 29.87 in 10.0 mi ESE 10.4 mph - N/A   Clear
1:55 PM 50.0 °F - 29.1 °F 45% 29.86 in 10.0 mi East 8.1 mph - N/A   Clear
2:15 PM 50.5 °F - 28.0 °F 42% 29.85 in 10.0 mi East 4.6 mph - N/A   Clear
2:35 PM 51.1 °F - 28.4 °F 42% 29.83 in 10.0 mi ESE 6.9 mph - N/A   Clear
2:55 PM 50.7 °F - 26.6 °F 39% 29.82 in 10.0 mi ESE 3.5 mph 9.2 mph N/A   Clear
3:15 PM 51.6 °F - 27.7 °F 40% 29.80 in 10.0 mi SE 5.8 mph - N/A   Clear
3:35 PM 53.1 °F - 27.9 °F 38% 29.78 in 10.0 mi ESE 9.2 mph - N/A   Clear
3:55 PM 53.1 °F - 27.5 °F 37% 29.78 in 10.0 mi ESE 3.5 mph - N/A   Clear
4:15 PM 54.3 °F - 28.2 °F 37% 29.77 in 10.0 mi SSE 11.5 mph 17.3 mph N/A   Clear
4:35 PM 54.9 °F - 28.2 °F 36% 29.76 in 10.0 mi SE 8.1 mph 16.1 mph N/A   Clear
4:55 PM 54.7 °F - 28.9 °F 37% 29.76 in 10.0 mi SE 12.7 mph - N/A   Clear
5:15 PM 55.2 °F - 28.8 °F 36% 29.75 in 10.0 mi South 12.7 mph 18.4 mph N/A   Clear
5:55 PM 55.0 °F - 29.5 °F 38% 29.74 in 10.0 mi SSE 10.4 mph - N/A   Clear
6:15 PM 54.9 °F - 29.8 °F 38% 29.75 in 10.0 mi SSE 5.8 mph 16.1 mph N/A   Clear
6:35 PM 54.5 °F - 30.7 °F 40% 29.75 in 10.0 mi SSE 8.1 mph 11.5 mph N/A   Clear
6:55 PM 54.1 °F - 30.7 °F 41% 29.76 in 10.0 mi South 6.9 mph - N/A   Clear
7:15 PM 53.1 °F - 30.4 °F 42% 29.76 in 10.0 mi SSE 5.8 mph - N/A   Clear
7:35 PM 51.8 °F - 30.6 °F 44% 29.76 in 10.0 mi SSE 9.2 mph - N/A   Clear
7:55 PM 50.7 °F - 30.4 °F 46% 29.75 in 10.0 mi SSE 8.1 mph - N/A   Clear
8:15 PM 47.7 °F - 30.4 °F 51% 29.76 in 10.0 mi SE 9.2 mph - N/A   Clear
8:35 PM 45.9 °F 41.2 °F 30.4 °F 55% 29.76 in 10.0 mi ESE 9.2 mph - N/A   Clear
8:55 PM 46.8 °F - 30.9 °F 54% 29.75 in 10.0 mi ESE 11.5 mph - N/A   Clear
9:15 PM 46.4 °F 40.4 °F 30.9 °F 55% 29.74 in 10.0 mi ESE 13.8 mph - N/A   Clear
9:35 PM 45.7 °F 39.5 °F 30.7 °F 56% 29.75 in 10.0 mi SE 13.8 mph - N/A   Clear
9:55 PM 44.6 °F 38.4 °F 30.7 °F 58% 29.74 in 10.0 mi ESE 12.7 mph - N/A   Clear
10:15 PM 43.2 °F 37.9 °F 30.7 °F 62% 29.75 in 10.0 mi SE 9.2 mph - N/A   Clear
10:35 PM 42.1 °F 36.1 °F 30.6 °F 64% 29.76 in 10.0 mi SE 10.4 mph - N/A   Clear
10:55 PM 42.1 °F 35.2 °F 30.9 °F 65% 29.75 in 10.0 mi SE 12.7 mph - N/A   Clear
11:35 PM 41.9 °F 34.3 °F 31.3 °F 66% 29.73 in 10.0 mi SE 15.0 mph - N/A   Clear
11:55 PM 41.2 °F 33.7 °F 31.5 °F 68% 29.74 in 10.0 mi SE 13.8 mph - N/A   Clear